| time (UTC) | temp F | wind direction | speed knots | gust knots | rain 1hr in | rain 24hr in | rain mn in | humidity % | barometer mb |
| 20260506013345 | 57 | 117 | 0.9 | 6.1 | 0.00 | 0.00 | 0.00 | 73 | 1008.3 |
| 20260506012345 | 57 | 140 | 3.5 | 7.0 | 0.00 | 0.00 | 0.00 | 74 | 1008.3 |
| 20260506011345 | 57 | 101 | 3.5 | 7.0 | 0.00 | 0.00 | 0.00 | 74 | 1008.2 |
| 20260506010354 | 57 | 119 | 2.6 | 0.0 | 0.00 | 0.00 | 0.00 | 74 | 1008.2 |
| 20260506005420 | 57 | 103 | 1.7 | 5.2 | 0.00 | 0.18 | 0.00 | 74 | 1008.0 |
| 20260506004419 | 57 | 91 | 0.9 | 2.6 | 0.00 | 0.18 | 0.00 | 75 | 1008.1 |
| 20260506003416 | 57 | 112 | 0.9 | 5.2 | 0.00 | 0.18 | 0.00 | 74 | 1008.3 |
| 20260506002847 | 57 | 92 | 2.6 | 6.1 | 0.00 | 0.18 | 0.00 | 74 | 1008.5 |
| 20260506002627 | 57 | 92 | 2.6 | 6.1 | 0.00 | 0.18 | 0.00 | 74 | 1008.5 |
| 20260506001416 | 57 | 107 | 1.7 | 5.2 | 0.00 | 0.18 | 0.00 | 74 | 1008.7 |
| 20260506000416 | 58 | 105 | 1.7 | 5.2 | 0.00 | 0.18 | 0.00 | 74 | 1008.8 |
| 20260505235415 | 58 | 98 | 1.7 | 7.0 | 0.00 | 0.18 | 0.00 | 73 | 1009.0 |
| 20260505234415 | 57 | 97 | 0.9 | 2.6 | 0.00 | 0.18 | 0.00 | 73 | 1009.1 |
| 20260505233415 | 57 | 117 | 0.9 | 2.6 | 0.00 | 0.18 | 0.00 | 74 | 1009.2 |
| 20260505232416 | 57 | 95 | 0.9 | 2.6 | 0.00 | 0.18 | 0.00 | 74 | 1009.3 |
| 20260505231854 | 57 | 95 | 0.0 | 3.5 | 0.00 | 0.18 | 0.00 | 74 | 1009.2 |
| 20260505231629 | 57 | 95 | 0.0 | 3.5 | 0.00 | 0.18 | 0.00 | 74 | 1009.2 |
| 20260505230413 | 57 | 95 | 0.9 | 1.7 | 0.00 | 0.18 | 0.00 | 74 | 1009.3 |
| 20260505225859 | 57 | 95 | 0.0 | 1.7 | 0.00 | 0.18 | 0.00 | 75 | 1009.2 |
| 20260505225626 | 57 | 95 | 0.0 | 1.7 | 0.00 | 0.18 | 0.00 | 75 | 1009.2 |
| 20260505224413 | 58 | 95 | 1.7 | 3.5 | 0.00 | 0.18 | 0.00 | 75 | 1009.3 |
| 20260505223411 | 58 | 98 | 2.6 | 6.1 | 0.00 | 0.18 | 0.00 | 75 | 1009.3 |
| 20260505222623 | 58 | 99 | 1.7 | 6.1 | 0.00 | 0.18 | 0.00 | 75 | 1009.4 |
| 20260505221412 | 58 | 115 | 0.9 | 5.2 | 0.00 | 0.18 | 0.00 | 75 | 1009.5 |
| 20260505220411 | 58 | 96 | 2.6 | 5.2 | 0.00 | 0.18 | 0.00 | 75 | 1009.5 |
| 20260505215408 | 58 | 92 | 2.6 | 6.1 | 0.00 | 0.18 | 0.18 | 76 | 1009.7 |
| 20260505214408 | 58 | 90 | 2.6 | 6.1 | 0.00 | 0.18 | 0.18 | 76 | 1009.8 |
| 20260505213409 | 59 | 89 | 1.7 | 5.2 | 0.00 | 0.18 | 0.18 | 76 | 1010.0 |
| 20260505212408 | 59 | 98 | 0.9 | 2.6 | 0.00 | 0.18 | 0.18 | 76 | 1010.0 |
| 20260505211408 | 59 | 111 | 0.9 | 2.6 | 0.00 | 0.18 | 0.18 | 77 | 1010.0 |
| 20260505210407 | 59 | 111 | 0.9 | 2.6 | 0.00 | 0.18 | 0.18 | 77 | 1010.1 |
| 20260505205409 | 59 | 123 | 0.0 | 1.7 | 0.00 | 0.18 | 0.18 | 77 | 1010.3 |
| 20260505204406 | 59 | 123 | 0.0 | 0.0 | 0.00 | 0.18 | 0.18 | 77 | 1010.3 |
| 20260505203406 | 59 | 123 | 0.0 | 0.0 | 0.00 | 0.18 | 0.18 | 77 | 1010.3 |
| 20260505202406 | 59 | 123 | 0.0 | 0.9 | 0.00 | 0.18 | 0.18 | 77 | 1010.3 |
| 20260505201407 | 59 | 123 | 0.0 | 1.7 | 0.00 | 0.18 | 0.18 | 77 | 1010.3 |
| 20260505200406 | 59 | 123 | 0.0 | 1.7 | 0.00 | 0.18 | 0.18 | 77 | 1010.3 |
| 20260505195403 | 59 | 123 | 0.0 | 1.7 | 0.00 | 0.18 | 0.18 | 77 | 1010.2 |
| 20260505194404 | 59 | 123 | 0.0 | 1.7 | 0.00 | 0.18 | 0.18 | 77 | 1010.2 |
| 20260505193402 | 59 | 123 | 0.0 | 2.6 | 0.00 | 0.18 | 0.18 | 76 | 1010.1 |
| 20260505192401 | 59 | 126 | 0.0 | 1.7 | 0.00 | 0.18 | 0.18 | 76 | 1010.1 |
| 20260505191359 | 59 | 126 | 0.0 | 2.6 | 0.00 | 0.18 | 0.18 | 76 | 1010.1 |
| 20260505190359 | 59 | 122 | 0.9 | 5.2 | 0.00 | 0.18 | 0.18 | 76 | 1009.9 |
| 20260505185836 | 59 | 95 | 0.9 | 5.2 | 0.00 | 0.18 | 0.18 | 75 | 1009.8 |
| 20260505185613 | 59 | 95 | 0.9 | 5.2 | 0.00 | 0.18 | 0.18 | 75 | 1009.8 |
| 20260505184400 | 59 | 90 | 0.9 | 2.6 | 0.00 | 0.18 | 0.18 | 75 | 1009.9 |
| 20260505183359 | 59 | 80 | 0.9 | 2.6 | 0.00 | 0.18 | 0.18 | 75 | 1009.9 |
| 20260505182836 | 59 | 64 | 0.9 | 2.6 | 0.00 | 0.18 | 0.18 | 75 | 1009.8 |
| 20260505182611 | 59 | 64 | 0.9 | 2.6 | 0.00 | 0.18 | 0.18 | 75 | 1009.8 |
| 20260505181401 | 59 | 58 | 0.9 | 2.6 | 0.00 | 0.18 | 0.18 | 75 | 1009.8 |
| 20260505180359 | 59 | 58 | 0.9 | 3.5 | 0.00 | 0.18 | 0.18 | 75 | 1009.8 |
| 20260505175359 | 59 | 54 | 0.9 | 2.6 | 0.00 | 0.18 | 0.18 | 75 | 1009.8 |
| 20260505174359 | 59 | 54 | 0.9 | 3.5 | 0.00 | 0.18 | 0.18 | 75 | 1009.8 |
| 20260505173359 | 59 | 99 | 0.0 | 1.7 | 0.00 | 0.18 | 0.18 | 75 | 1009.9 |
| 20260505172359 | 59 | 99 | 0.0 | 2.6 | 0.00 | 0.18 | 0.18 | 75 | 1009.8 |
| 20260505171359 | 59 | 99 | 0.0 | 1.7 | 0.00 | 0.18 | 0.18 | 76 | 1009.8 |
| 20260505170359 | 59 | 99 | 0.9 | 2.6 | 0.00 | 0.18 | 0.18 | 76 | 1009.8 |
| 20260505165359 | 59 | 103 | 0.9 | 3.5 | 0.00 | 0.18 | 0.18 | 76 | 1009.8 |
| 20260505164359 | 59 | 61 | 0.9 | 2.6 | 0.00 | 0.18 | 0.18 | 76 | 1009.9 |
| 20260505163359 | 59 | 105 | 0.9 | 3.5 | 0.00 | 0.18 | 0.18 | 76 | 1010.0 |
| 20260505162359 | 59 | 110 | 0.9 | 2.6 | 0.00 | 0.18 | 0.18 | 76 | 1010.0 |
| 20260505161839 | 59 | 99 | 1.7 | 2.6 | 0.00 | 0.18 | 0.18 | 76 | 1010.0 |
| 20260505161613 | 59 | 99 | 1.7 | 2.6 | 0.00 | 0.18 | 0.18 | 76 | 1010.0 |
| 20260505160836 | 59 | 98 | 0.9 | 3.5 | 0.01 | 0.18 | 0.18 | 76 | 1010.1 |
| 20260505160614 | 59 | 98 | 0.9 | 3.5 | 0.01 | 0.18 | 0.18 | 76 | 1010.1 |
| 20260505153359 | 58 | 94 | 2.6 | 6.1 | 0.01 | 0.18 | 0.18 | 76 | 1010.2 |
| 20260505152359 | 58 | 92 | 2.6 | 6.1 | 0.01 | 0.18 | 0.18 | 76 | 1010.2 |
| 20260505151401 | 59 | 82 | 2.6 | 7.0 | 0.01 | 0.18 | 0.18 | 76 | 1010.1 |
| 20260505150614 | 59 | 104 | 1.7 | 5.2 | 0.00 | 0.17 | 0.17 | 76 | 1010.2 |
| 20260505140610 | 59 | 92 | 0.9 | 2.6 | 0.04 | 0.17 | 0.17 | 79 | 1010.3 |
| 20260505124359 | 61 | 116 | 0.9 | 5.2 | 0.00 | 0.13 | 0.13 | 84 | 1010.6 |
| 20260505123359 | 61 | 88 | 2.6 | 6.1 | 0.00 | 0.13 | 0.13 | 83 | 1010.6 |
| 20260505122359 | 62 | 86 | 2.6 | 6.1 | 0.00 | 0.13 | 0.13 | 83 | 1010.6 |
| 20260505121610 | 62 | 99 | 1.7 | 7.0 | 0.00 | 0.13 | 0.13 | 82 | 1010.5 |
| 20260505120400 | 62 | 100 | 2.6 | 6.1 | 0.00 | 0.13 | 0.13 | 82 | 1010.5 |
| 20260505115359 | 62 | 117 | 1.7 | 6.1 | 0.00 | 0.13 | 0.13 | 84 | 1010.6 |
| 20260505114359 | 62 | 86 | 3.5 | 7.0 | 0.00 | 0.13 | 0.13 | 85 | 1010.6 |
| 20260505113400 | 61 | 96 | 1.7 | 6.1 | 0.00 | 0.13 | 0.13 | 85 | 1010.6 |
| 20260505112359 | 60 | 47 | 1.7 | 4.3 | 0.00 | 0.13 | 0.13 | 85 | 1010.6 |
| 20260505111359 | 60 | 90 | 0.9 | 3.5 | 0.00 | 0.13 | 0.13 | 86 | 1010.7 |
| 20260505110412 | 60 | 58 | 0.9 | 3.5 | 0.00 | 0.13 | 0.13 | 85 | 1010.8 |
| 20260505101355 | 59 | 30 | 0.9 | 2.6 | 0.00 | 0.13 | 0.13 | 83 | 1010.8 |
| 20260505100834 | 59 | 17 | 0.0 | 2.6 | 0.00 | 0.13 | 0.13 | 83 | 1010.9 |
| 20260505100607 | 59 | 17 | 0.0 | 2.6 | 0.00 | 0.13 | 0.13 | 83 | 1010.9 |
| 20260505095355 | 58 | 177 | 0.0 | 0.0 | 0.00 | 0.13 | 0.13 | 82 | 1010.9 |
| 20260505094355 | 58 | 177 | 0.0 | 0.0 | 0.00 | 0.13 | 0.13 | 79 | 1010.9 |
| 20260505093355 | 58 | 163 | 0.0 | 0.0 | 0.00 | 0.13 | 0.13 | 78 | 1011.0 |
| 20260505092356 | 58 | 163 | 0.0 | 0.0 | 0.00 | 0.13 | 0.13 | 77 | 1010.8 |
| 20260505091354 | 58 | 163 | 0.0 | 0.9 | 0.00 | 0.13 | 0.13 | 77 | 1010.7 |
| 20260505090835 | 57 | 163 | 0.0 | 1.7 | 0.00 | 0.13 | 0.13 | 77 | 1010.8 |
| 20260505090608 | 57 | 163 | 0.0 | 1.7 | 0.00 | 0.13 | 0.13 | 77 | 1010.8 |
| 20260505085353 | 57 | 159 | 0.9 | 3.5 | 0.00 | 0.13 | 0.13 | 77 | 1010.6 |
| 20260505084353 | 57 | 156 | 0.0 | 2.6 | 0.00 | 0.13 | 0.13 | 76 | 1010.6 |
| 20260505083352 | 57 | 156 | 0.9 | 2.6 | 0.00 | 0.13 | 0.13 | 77 | 1010.6 |
| 20260505082352 | 57 | 156 | 0.0 | 1.7 | 0.00 | 0.13 | 0.13 | 77 | 1010.7 |
| 20260505081353 | 57 | 146 | 0.0 | 1.7 | 0.01 | 0.13 | 0.13 | 77 | 1010.6 |
| 20260505080836 | 56 | 146 | 0.9 | 2.6 | 0.02 | 0.13 | 0.13 | 77 | 1010.6 |
| 20260505080604 | 56 | 146 | 0.9 | 2.6 | 0.02 | 0.13 | 0.13 | 77 | 1010.6 |
| 20260505075350 | 56 | 127 | 0.0 | 1.7 | 0.05 | 0.13 | 0.13 | 77 | 1010.8 |
| 20260505074832 | 56 | 126 | 0.0 | 1.7 | 0.06 | 0.13 | 0.13 | 77 | 1010.8 |
| 20260505074606 | 56 | 126 | 0.0 | 1.7 | 0.06 | 0.13 | 0.13 | 77 | 1010.8 |
| 20260505073351 | 56 | 126 | 0.9 | 2.6 | 0.06 | 0.13 | 0.13 | 77 | 1010.7 |
| 20260505072829 | 56 | 127 | 0.9 | 2.6 | 0.07 | 0.13 | 0.13 | 77 | 1010.6 |
| 20260505072602 | 56 | 127 | 0.9 | 2.6 | 0.07 | 0.13 | 0.13 | 77 | 1010.6 |
| 20260505071833 | 56 | 196 | 0.0 | 0.9 | 0.09 | 0.13 | 0.13 | 78 | 1010.7 |
| 20260505071603 | 56 | 196 | 0.0 | 0.9 | 0.09 | 0.13 | 0.13 | 78 | 1010.7 |
| 20260505070349 | 56 | 196 | 0.0 | 1.7 | 0.09 | 0.12 | 0.12 | 78 | 1010.8 |
| 20260505065605 | 56 | 196 | 0.0 | 2.6 | 0.06 | 0.09 | 0.09 | 78 | 1010.6 |
| 20260505064350 | 56 | 209 | 1.7 | 4.3 | 0.06 | 0.08 | 0.08 | 78 | 1010.9 |
| 20260505063350 | 56 | 235 | 1.7 | 4.3 | 0.07 | 0.08 | 0.08 | 79 | 1010.9 |
| 20260505062832 | 56 | 225 | 2.6 | 7.0 | 0.06 | 0.06 | 0.06 | 79 | 1010.7 |
| 20260505062603 | 56 | 225 | 2.6 | 7.0 | 0.06 | 0.06 | 0.06 | 79 | 1010.7 |
| 20260505061350 | 56 | 200 | 2.6 | 7.0 | 0.04 | 0.04 | 0.04 | 81 | 1010.8 |
| 20260505060349 | 56 | 221 | 1.7 | 4.3 | 0.03 | 0.03 | 0.03 | 82 | 1010.9 |
| 20260505055833 | 56 | 219 | 2.6 | 7.0 | 0.02 | 0.02 | 0.02 | 83 | 1010.8 |
| 20260505055606 | 56 | 219 | 2.6 | 7.0 | 0.02 | 0.02 | 0.02 | 83 | 1010.8 |
| 20260505054831 | 57 | 215 | 3.5 | 7.8 | 0.02 | 0.02 | 0.02 | 84 | 1010.7 |
| 20260505054602 | 57 | 215 | 3.5 | 7.8 | 0.02 | 0.02 | 0.02 | 84 | 1010.7 |
| 20260505053350 | 57 | 257 | 2.6 | 7.0 | 0.01 | 0.01 | 0.01 | 85 | 1010.5 |
| 20260505052349 | 58 | 258 | 2.6 | 6.1 | 0.00 | 0.00 | 0.00 | 86 | 1010.3 |
| 20260505051349 | 58 | 227 | 2.6 | 7.0 | 0.00 | 0.00 | 0.00 | 85 | 1010.2 |
| 20260505050351 | 58 | 209 | 2.6 | 7.0 | 0.00 | 0.00 | 0.00 | 84 | 1010.1 |
| 20260505041347 | 59 | 219 | 1.7 | 4.3 | 0.00 | 0.00 | 0.00 | 81 | 1009.7 |
| 20260505040347 | 59 | 226 | 0.9 | 4.3 | 0.00 | 0.00 | 0.00 | 78 | 1009.7 |
| 20260505035345 | 59 | 197 | 0.0 | 1.7 | 0.00 | 0.00 | 0.00 | 77 | 1009.9 |
| 20260505034345 | 60 | 196 | 0.0 | 2.6 | 0.00 | 0.00 | 0.00 | 77 | 1009.9 |
| 20260505033340 | 60 | 205 | 0.9 | 3.5 | 0.00 | 0.00 | 0.00 | 77 | 1009.9 |
| 20260505032341 | 60 | 182 | 0.0 | 2.6 | 0.00 | 0.00 | 0.00 | 76 | 1009.9 |
| 20260505031340 | 60 | 182 | 1.7 | 4.3 | 0.00 | 0.00 | 0.00 | 75 | 1010.1 |
| 20260505030339 | 60 | 204 | 0.9 | 3.5 | 0.00 | 0.00 | 0.00 | 75 | 1010.2 |
| 20260505025552 | 60 | 252 | 0.0 | 0.0 | 0.00 | 0.00 | 0.00 | 74 | 1010.3 |
| 20260505024337 | 61 | 252 | 0.0 | 0.0 | 0.00 | 0.00 | 0.00 | 73 | 1010.5 |
| 20260505023338 | 61 | 252 | 0.0 | 0.0 | 0.00 | 0.00 | 0.00 | 72 | 1010.5 |
| 20260505022343 | 61 | 252 | 0.0 | 0.9 | 0.00 | 0.00 | 0.00 | 71 | 1010.6 |
| 20260505021341 | 61 | 252 | 0.0 | 1.7 | 0.00 | 0.00 | 0.00 | 69 | 1010.7 |
| 20260505020342 | 61 | 252 | 0.0 | 2.6 | 0.00 | 0.00 | 0.00 | 69 | 1010.8 |
| 20260505015345 | 61 | 238 | 0.9 | 3.5 | 0.00 | 0.00 | 0.00 | 68 | 1010.8 |
| 20260505014341 | 62 | 238 | 0.9 | 6.1 | 0.00 | 0.00 | 0.00 | 68 | 1010.8 |